GW2704 Weather Reports


time (UTC)temp
C
wind
direction
speed
KPH
gust
KPH
rain 1hr
cm
rain 24hr
cm
rain mn
cm
humidity
%
barometer
mb
20260503194533 24 111 1.6 4.8 0.00 0.00 0.00 53 1015.2
20260503193532 23 64 1.6 3.2 0.00 0.00 0.00 54 1015.3
20260503192609 23 150 1.6 3.2 0.00 0.00 0.00 56 1015.5
20260503191532 23 83 1.6 8.0 0.00 0.00 0.00 55 1015.6
20260503190532 23 72 1.6 3.2 0.00 0.00 0.00 57 1015.6
20260503185702 23 50 1.6 4.8 0.00 0.00 0.00 57 1015.8
20260503184522 22 107 1.6 1.6 0.00 0.00 0.00 60 1015.8
20260503183607 22 175 1.6 3.2 0.00 0.00 0.00 60 1016.0
20260503182609 22 210 0.0 3.2 0.00 0.00 0.00 61 1016.1
20260503181553 22 81 0.0 1.6 0.00 0.00 0.00 61 1016.2
20260503180532 21 166 0.0 3.2 0.00 0.00 0.00 63 1016.2
20260503175659 21 211 1.6 3.2 0.00 0.00 0.00 64 1016.3
20260503174532 21 77 1.6 4.8 0.00 0.00 0.00 60 1016.3
20260503173552 21 133 0.0 1.6 0.00 0.00 0.00 62 1016.3
20260503172533 20 170 1.6 3.2 0.00 0.00 0.00 64 1016.6
20260503171601 19 176 1.6 4.8 0.00 0.00 0.00 68 1016.6
20260503170533 21 193 1.6 3.2 0.00 0.00 0.00 65 1016.6
20260503150521 16 0.0 0.0 0.00 0.00 0.00 78 1017.1
20260503130532 8 0.0 0.0 0.00 0.00 0.00 96 1016.8
20260503110612 9 0.0 0.0 0.00 0.00 0.00 95 1016.9
20260503081549 11 0.0 0.0 0.00 0.00 0.00 90 1017.0
20260503080554 11 56 0.0 1.6 0.00 0.00 0.00 91 1017.0
20260503072610 11 0.0 0.0 0.00 0.00 0.00 88 1016.8
20260503071529 12 0.0 0.0 0.00 0.00 0.00 88 1016.7
20260503070554 12 0.0 0.0 0.00 0.00 0.00 87 1016.8
20260503054553 13 0.0 0.0 0.00 0.00 0.00 80 1016.6
20260503053658 14 0.0 0.0 0.00 0.00 0.00 79 1016.6
20260503052533 14 0.0 0.0 0.00 0.00 0.00 79 1016.6
20260503051602 14 0.0 0.0 0.00 0.00 0.00 79 1016.6
20260503050522 14 0.0 0.0 0.00 0.00 0.00 77 1016.5
20260503045546 15 0.0 0.0 0.00 0.00 0.00 76 1016.5
20260503044610 15 0.0 0.0 0.00 0.00 0.00 74 1016.4
20260503043530 15 0.0 0.0 0.00 0.00 0.00 72 1016.2
20260503042614 16 0.0 0.0 0.00 0.00 0.00 72 1016.1
20260503041618 16 0.0 0.0 0.00 0.00 0.00 70 1016.0
20260503040532 16 0.0 0.0 0.00 0.00 0.00 68 1015.9
20260503035545 17 0.0 0.0 0.00 0.00 0.00 66 1015.8
20260503034609 17 0.0 0.0 0.00 0.00 0.00 66 1015.6
20260503033532 17 0.0 0.0 0.00 0.00 0.00 64 1015.6
20260503032553 18 0.0 0.0 0.00 0.00 0.00 62 1015.4
20260503031618 18 0.0 0.0 0.00 0.00 0.00 61 1015.2
20260503030745 19 69 0.0 1.6 0.00 0.00 0.00 58 1015.2
20260503025533 20 0.0 0.0 0.00 0.00 0.00 57 1015.1
20260503024553 20 69 0.0 1.6 0.00 0.00 0.00 57 1015.1
20260503023532 20 34 1.6 4.8 0.00 0.00 0.00 56 1015.0
20260503022533 20 34 0.0 1.6 0.00 0.00 0.00 55 1014.9
20260503021602 21 57 0.0 1.6 0.00 0.00 0.00 55 1015.0
20260503020533 21 105 0.0 1.6 0.00 0.00 0.00 54 1015.1
20260503015530 22 178 0.0 1.6 0.00 0.00 0.00 53 1015.1
20260503014614 22 199 1.6 3.2 0.00 0.00 0.00 53 1015.1
20260503013533 22 64 1.6 3.2 0.00 0.00 0.00 53 1015.2
20260503012522 23 215 1.6 3.2 0.00 0.00 0.00 54 1015.2
20260503011546 23 217 1.6 3.2 0.00 0.00 0.00 55 1015.3
20260503010533 23 210 1.6 9.7 0.00 0.00 0.00 53 1015.3
20260503005530 23 235 0.0 3.2 0.00 0.00 0.00 54 1015.3
20260503004554 23 59 1.6 8.0 0.00 0.00 0.00 52 1015.4
20260503003533 23 111 0.0 1.6 0.00 0.00 0.00 54 1015.4
20260503002532 23 53 1.6 3.2 0.00 0.00 0.00 53 1015.4
20260503001600 22 17 1.6 4.8 0.00 0.00 0.00 54 1015.5
20260503000533 23 21 3.2 4.8 0.00 0.00 0.00 54 1015.6
20260502235533 23 180 1.6 8.0 0.00 0.00 0.00 56 1015.6
20260502234610 23 241 1.6 3.2 0.00 0.00 0.00 56 1015.8
20260502233533 23 109 1.6 3.2 0.00 0.00 0.00 58 1015.9
20260502232613 23 320 1.6 4.8 0.00 0.00 0.00 57 1016.1
20260502231622 22 55 1.6 4.8 0.00 0.00 0.00 57 1016.2
20260502230532 22 74 3.2 8.0 0.00 0.00 0.00 58 1016.3
20260502225533 22 137 1.6 3.2 0.00 0.00 0.00 60 1016.5
20260502224610 22 48 3.2 8.0 0.00 0.00 0.00 60 1016.6
20260502223533 21 28 1.6 3.2 0.00 0.00 0.00 62 1016.6
20260502222533 21 114 1.6 4.8 0.00 0.00 0.00 61 1016.8
20260502221533 21 230 3.2 9.7 0.00 0.00 0.00 62 1017.0
20260502220532 21 82 1.6 4.8 0.00 0.00 0.00 61 1017.1
20260502215618 21 30 1.6 3.2 0.00 0.00 0.00 61 1017.3
20260502214538 21 80 1.6 3.2 0.00 0.00 0.00 61 1017.4
20260502213533 21 25 1.6 3.2 0.00 0.00 0.00 62 1017.4
20260502212522 21 166 1.6 1.6 0.00 0.00 0.00 63 1017.6
20260502211546 21 112 1.6 8.0 0.00 0.00 0.00 61 1017.7
20260502210532 21 117 1.6 4.8 0.00 0.00 0.00 62 1017.7
20260502205530 21 107 1.6 3.2 0.00 0.00 0.00 64 1017.8
20260502204554 21 127 1.6 3.2 0.00 0.00 0.00 64 1017.8
20260502203532 21 126 1.6 4.8 0.00 0.00 0.00 64 1017.9
20260502202522 21 24 1.6 3.2 0.00 0.00 0.00 65 1018.1
20260502201546 20 67 1.6 4.8 0.00 0.00 0.00 68 1018.3
20260502200532 20 199 1.6 8.0 0.00 0.00 0.00 70 1018.5
20260502195530 19 208 3.2 4.8 0.00 0.00 0.00 73 1018.5